Edwards, CA

9:29 AM PDT on September 29, 2016 (GMT -0700)
Edwards AFB North Base

Weather History for K9L2 - April, 2014

Change the Weather History Date:

Friday, April 18, 2014

  Actual Average (KEDW) Record (KEDW)
Temperature  
Mean Temperature 68 °F -  
Max Temperature 80 °F 71 °F 91 °F (1999)
Min Temperature 57 °F 43 °F 33 °F (2006)
Cooling Degree Days 4    
Growing Degree Days 18 (Base 50)    
Moisture  
Dew Point 40 °F    
Average Humidity 39    
Maximum Humidity 62    
Minimum Humidity 14    
Precipitation  
Precipitation 0.00 in - - ()
Sea Level Pressure  
Sea Level Pressure 29.80 in    
Wind  
Wind Speed 12 mph (SW)    
Max Wind Speed 21 mph    
Max Gust Speed 29 mph    
Visibility 10 miles    
Events Thunderstorm    
Averages and records for this station are not official NWS values.
T = Trace of Precipitation, MM = Missing Value Source: NWS Daily Summary

Daily Weather History Graph

Daily Weather History Graph

Search for Another Location

Airport or City:

Trip Planner

Search our weather history database for the weather conditions in past years. The results will help you decide how hot, cold, wet, or windy it might be!

Date:

Astronomy

Apr. 18, 2014 Rise Set
Actual Time 6:15 AM PDT 7:26 PM PDT
Civil Twilight 5:49 AM PDT 7:52 PM PDT
Nautical Twilight 5:18 AM PDT 8:24 PM PDT
Astronomical Twilight 4:45 AM PDT 8:56 PM PDT
Moon 11:10 PM PDT (4/18) 8:46 AM PDT (4/18)
Length of Visible Light 14h 03m
Length of Day
13h 10m
Waning Gibbous, 86% of the Moon is Illuminated
Apr 18
Waning Gibbous
Apr 22
Last Quarter
Apr 28
New
May 6
First Quarter
May 14
Full

Hourly Weather History & Observations

Time (PDT) Temp. Dew Point Humidity Pressure Visibility Wind Dir Wind Speed Gust Speed Precip Events Conditions
12:55 AM 62.1 °F 39.9 °F 44% 29.79 in 10.0 mi WSW 5.8 mph - N/A   Clear
1:55 AM 60.1 °F 43.0 °F 53% 29.79 in 10.0 mi South 12.7 mph - N/A   Clear
2:55 AM 63.0 °F 39.0 °F 41% 29.76 in 10.0 mi WSW 15.0 mph - N/A   Clear
3:55 AM 60.1 °F 42.1 °F 51% 29.76 in 10.0 mi South 11.5 mph - N/A   Clear
4:55 AM 57.0 °F 43.0 °F 59% 29.76 in 10.0 mi South 6.9 mph - N/A   Clear
5:55 AM 57.0 °F 43.0 °F 59% 29.77 in 10.0 mi South 13.8 mph - N/A   Clear
6:55 AM 57.0 °F 44.1 °F 62% 29.79 in 9.0 mi South 9.2 mph - N/A   Clear
7:55 AM 59.0 °F 44.1 °F 58% 29.81 in 10.0 mi SSW 12.7 mph - N/A   Clear
8:55 AM 63.0 °F 45.0 °F 52% 29.81 in 10.0 mi SW 16.1 mph - N/A   Clear
9:55 AM 66.9 °F 44.1 °F 44% 29.82 in 10.0 mi SW 13.8 mph - N/A   Clear
10:55 AM 72.0 °F 44.1 °F 37% 29.83 in 10.0 mi SSW 12.7 mph - N/A   Clear
11:55 AM 75.0 °F 42.1 °F 31% 29.82 in 10.0 mi SSW 12.7 mph 19.6 mph N/A   Clear
12:55 PM 75.9 °F 37.9 °F 25% 29.81 in 10.0 mi SW 4.6 mph - N/A   Clear
1:55 PM 79.0 °F 28.9 °F 16% 29.80 in 10.0 mi South 11.5 mph 16.1 mph N/A   Clear
2:55 PM 80.1 °F 26.1 °F 14% 29.77 in 10.0 mi SSE 9.2 mph 18.4 mph N/A   Clear
3:55 PM 80.1 °F 26.1 °F 14% 29.76 in 10.0 mi South 12.7 mph 19.6 mph N/A   Clear
4:55 PM 80.1 °F 34.0 °F 19% 29.75 in 10.0 mi WSW 15.0 mph - N/A   Clear
5:35 PM 78.8 °F 41.0 °F 26% 29.80 in 10.0 mi WSW 17.3 mph - N/A Thunderstorm Thunderstorm
5:50 PM 75.2 °F 42.8 °F 31% 29.80 in 10.0 mi SW 18.4 mph 26.5 mph N/A   Clear
5:55 PM 75.9 °F 42.1 °F 30% 29.77 in 10.0 mi SW 19.6 mph 25.3 mph N/A   Clear
6:55 PM 71.1 °F 45.0 °F 39% 29.81 in 10.0 mi SSW 20.7 mph 28.8 mph N/A   Clear
7:55 PM 66.9 °F 45.0 °F 45% 29.83 in 10.0 mi SW 15.0 mph - N/A   Clear
8:55 PM 64.9 °F 44.1 °F 47% 29.85 in 10.0 mi WSW 12.7 mph - N/A   Clear
9:55 PM 64.9 °F 41.0 °F 42% 29.85 in 10.0 mi WSW 15.0 mph - N/A   Clear
10:55 PM 64.0 °F 39.9 °F 41% 29.86 in 10.0 mi WSW 13.8 mph - N/A   Clear
11:55 PM 62.1 °F 37.0 °F 39% 29.87 in 10.0 mi SW 12.7 mph - N/A   Clear